����������;��������(kWh)
2019-06-03 00:00;74
2019-06-03 00:15;75,05
2019-06-03 00:30;74,05
2019-06-03 00:45;73,15
2019-06-03 01:00;75,55
2019-06-03 01:15;75,55
2019-06-03 01:30;74,95
2019-06-03 01:45;75,95
2019-06-03 02:00;75,85
2019-06-03 02:15;73,35
2019-06-03 02:30;75,5
2019-06-03 02:45;75,55
2019-06-03 03:00;74,85
2019-06-03 03:15;73,35
2019-06-03 03:30;74,35
2019-06-03 03:45;74,4
2019-06-03 04:00;76,25
2019-06-03 04:15;75,25
2019-06-03 04:30;75,9
2019-06-03 04:45;76,7
2019-06-03 05:00;77,4
2019-06-03 05:15;78
2019-06-03 05:30;76,8
2019-06-03 05:45;78,35
2019-06-03 06:00;75,9
2019-06-03 06:15;72,55
2019-06-03 06:30;71,25
2019-06-03 06:45;70,15
2019-06-03 07:00;67,9
2019-06-03 07:15;69,75
2019-06-03 07:30;120,7
2019-06-03 07:45;91,1
2019-06-03 08:00;79,15
2019-06-03 08:15;81,5
2019-06-03 08:30;91,2
2019-06-03 08:45;86,9
2019-06-03 09:00;98,5
2019-06-03 09:15;93,3
2019-06-03 09:30;100,95
2019-06-03 09:45;102,75
2019-06-03 10:00;115,8
2019-06-03 10:15;119,8
2019-06-03 10:30;122,1
2019-06-03 10:45;127,9
2019-06-03 11:00;120,6
2019-06-03 11:15;119,8
2019-06-03 11:30;134,05
2019-06-03 11:45;127,8
2019-06-03 12:00;134,15
2019-06-03 12:15;134,85
2019-06-03 12:30;145,5
2019-06-03 12:45;138,15
2019-06-03 13:00;136,1
2019-06-03 13:15;145
2019-06-03 13:30;135,4
2019-06-03 13:45;137,4
2019-06-03 14:00;132
2019-06-03 14:15;137,35
2019-06-03 14:30;132,1
2019-06-03 14:45;133,15
2019-06-03 15:00;132,15
2019-06-03 15:15;127,65
2019-06-03 15:30;132,9
2019-06-03 15:45;120,6
2019-06-03 16:00;122,5
2019-06-03 16:15;115,75
2019-06-03 16:30;119,35
2019-06-03 16:45;118,4
2019-06-03 17:00;111,8
2019-06-03 17:15;115,6
2019-06-03 17:30;110,3
2019-06-03 17:45;114,95
2019-06-03 18:00;109,85
2019-06-03 18:15;112,95
2019-06-03 18:30;107,8
2019-06-03 18:45;110,2
2019-06-03 19:00;108,95
2019-06-03 19:15;110,5
2019-06-03 19:30;110,3
2019-06-03 19:45;104,85
2019-06-03 20:00;106
2019-06-03 20:15;103,45
2019-06-03 20:30;108,85
2019-06-03 20:45;105,7
2019-06-03 21:00;108,05
2019-06-03 21:15;104,65
2019-06-03 21:30;104,9
2019-06-03 21:45;99,05
2019-06-03 22:00;94,45
2019-06-03 22:15;86,45
2019-06-03 22:30;86,15
2019-06-03 22:45;85,8
2019-06-03 23:00;86,15
2019-06-03 23:15;88,55
2019-06-03 23:30;88,35
2019-06-03 23:45;92,6
2019-06-04 00:00;83,7
2019-06-04 00:15;84,45
2019-06-04 00:30;83,85
2019-06-04 00:45;83,9
2019-06-04 01:00;82,5
2019-06-04 01:15;83,7
2019-06-04 01:30;81,9
2019-06-04 01:45;81,85
2019-06-04 02:00;81,45
2019-06-04 02:15;83,15
2019-06-04 02:30;82,8
2019-06-04 02:45;85
2019-06-04 03:00;83,65
2019-06-04 03:15;82,85
2019-06-04 03:30;83,45
2019-06-04 03:45;83,7
2019-06-04 04:00;83,45
2019-06-04 04:15;86,75
2019-06-04 04:30;84,1
2019-06-04 04:45;79,4
2019-06-04 05:00;83,6
2019-06-04 05:15;84,5
2019-06-04 05:30;85,5
2019-06-04 05:45;84,6
2019-06-04 06:00;81,65
2019-06-04 06:15;76
2019-06-04 06:30;75,2
2019-06-04 06:45;74,8
2019-06-04 07:00;77,25
2019-06-04 07:15;75,75
2019-06-04 07:30;117,1
2019-06-04 07:45;83,5
2019-06-04 08:00;79,7
2019-06-04 08:15;84,4
2019-06-04 08:30;94,8
2019-06-04 08:45;93,55
2019-06-04 09:00;106,8
2019-06-04 09:15;109,4
2019-06-04 09:30;103,75
2019-06-04 09:45;116,3
2019-06-04 10:00;113,6
2019-06-04 10:15;118,55
2019-06-04 10:30;123,1
2019-06-04 10:45;115,05
2019-06-04 11:00;126,35
2019-06-04 11:15;133,85
2019-06-04 11:30;138,35
2019-06-04 11:45;142,5
2019-06-04 12:00;139,8
2019-06-04 12:15;143
2019-06-04 12:30;148,1
2019-06-04 12:45;146,65
2019-06-04 13:00;148,9
2019-06-04 13:15;145,3
2019-06-04 13:30;149,6
2019-06-04 13:45;142,8
2019-06-04 14:00;139,55
2019-06-04 14:15;143,2
2019-06-04 14:30;138,05
2019-06-04 14:45;144,55
2019-06-04 15:00;142,55
2019-06-04 15:15;138,65
2019-06-04 15:30;137,4
2019-06-04 15:45;128,9
2019-06-04 16:00;129,55
2019-06-04 16:15;125,35
2019-06-04 16:30;130,5
2019-06-04 16:45;124,45
2019-06-04 17:00;128,65
2019-06-04 17:15;125
2019-06-04 17:30;125,35
2019-06-04 17:45;120,45
2019-06-04 18:00;122,35
2019-06-04 18:15;117,1
2019-06-04 18:30;115,25
2019-06-04 18:45;108,85
2019-06-04 19:00;112,25
2019-06-04 19:15;111,1
2019-06-04 19:30;115,45
2019-06-04 19:45;114,15
2019-06-04 20:00;111,05
2019-06-04 20:15;107,75
2019-06-04 20:30;106,6
2019-06-04 20:45;106,75
2019-06-04 21:00;109,15
2019-06-04 21:15;107,1
2019-06-04 21:30;106,55
2019-06-04 21:45;97,55
2019-06-04 22:00;92,95
2019-06-04 22:15;87,55
2019-06-04 22:30;86,7
2019-06-04 22:45;87,45
2019-06-04 23:00;91,8
2019-06-04 23:15;88,3
2019-06-04 23:30;90,25
2019-06-04 23:45;94,6
2019-06-05 00:00;84,35
2019-06-05 00:15;85,15
2019-06-05 00:30;84,95
2019-06-05 00:45;84,05
2019-06-05 01:00;83,5
2019-06-05 01:15;82,1
2019-06-05 01:30;81,9
2019-06-05 01:45;82,6
2019-06-05 02:00;83,8
2019-06-05 02:15;81,1
2019-06-05 02:30;82,25
2019-06-05 02:45;82,45
2019-06-05 03:00;80,85
2019-06-05 03:15;81,7
2019-06-05 03:30;82,9
2019-06-05 03:45;81,8
2019-06-05 04:00;81,9
2019-06-05 04:15;82,1
2019-06-05 04:30;83,45
2019-06-05 04:45;82,3
2019-06-05 05:00;87,75
2019-06-05 05:15;87,2
2019-06-05 05:30;88,15
2019-06-05 05:45;89,65
2019-06-05 06:00;85,4
2019-06-05 06:15;80,8
2019-06-05 06:30;78,9
2019-06-05 06:45;81,35
2019-06-05 07:00;82,6
2019-06-05 07:15;81,75
2019-06-05 07:30;135,75
2019-06-05 07:45;102,3
2019-06-05 08:00;92,25
2019-06-05 08:15;97,05
2019-06-05 08:30;101,8
2019-06-05 08:45;108,95
2019-06-05 09:00;107,6
2019-06-05 09:15;108,95
2019-06-05 09:30;119,45
2019-06-05 09:45;119,75
2019-06-05 10:00;127,6
2019-06-05 10:15;133,2
2019-06-05 10:30;134,6
2019-06-05 10:45;132,75
2019-06-05 11:00;132,5
2019-06-05 11:15;138,25
2019-06-05 11:30;141,75
2019-06-05 11:45;149,05
2019-06-05 12:00;146,9
2019-06-05 12:15;147,7
2019-06-05 12:30;147,3
2019-06-05 12:45;144
2019-06-05 13:00;150,25
2019-06-05 13:15;144,4
2019-06-05 13:30;146,95
2019-06-05 13:45;73,95
2019-06-05 14:00;150,8
2019-06-05 14:15;141,75
2019-06-05 14:30;143
2019-06-05 14:45;143,65
2019-06-05 15:00;141
2019-06-05 15:15;136,5
2019-06-05 15:30;134,65
2019-06-05 15:45;135
2019-06-05 16:00;132,95
2019-06-05 16:15;132,05
2019-06-05 16:30;128,95
2019-06-05 16:45;124,75
2019-06-05 17:00;117,6
2019-06-05 17:15;120,85
2019-06-05 17:30;117,1
2019-06-05 17:45;117,25
2019-06-05 18:00;115,7
2019-06-05 18:15;114,65
2019-06-05 18:30;118
2019-06-05 18:45;109,5
2019-06-05 19:00;114,65
2019-06-05 19:15;112,95
2019-06-05 19:30;114,55
2019-06-05 19:45;113,3
2019-06-05 20:00;109,7
2019-06-05 20:15;108,4
2019-06-05 20:30;107,75
2019-06-05 20:45;107,35
2019-06-05 21:00;110,75
2019-06-05 21:15;111,05
2019-06-05 21:30;110,9
2019-06-05 21:45;104,7
2019-06-05 22:00;92,65
2019-06-05 22:15;87,45
2019-06-05 22:30;86,5
2019-06-05 22:45;84,5
2019-06-05 23:00;92,5
2019-06-05 23:15;87,35
2019-06-05 23:30;88,65
2019-06-05 23:45;91,4
2019-06-06 00:00;82,55
2019-06-06 00:15;82,75
2019-06-06 00:30;82,3
2019-06-06 00:45;80,3
2019-06-06 01:00;82,55
2019-06-06 01:15;84,45
2019-06-06 01:30;86,3
2019-06-06 01:45;83
2019-06-06 02:00;82,5
2019-06-06 02:15;82,2
2019-06-06 02:30;81,6
2019-06-06 02:45;82,3
2019-06-06 03:00;83,1
2019-06-06 03:15;82
2019-06-06 03:30;82,15
2019-06-06 03:45;82,95
2019-06-06 04:00;84,55
2019-06-06 04:15;84
2019-06-06 04:30;82,2
2019-06-06 04:45;82,4
2019-06-06 05:00;84,55
2019-06-06 05:15;86,85
2019-06-06 05:30;86,6
2019-06-06 05:45;85,25
2019-06-06 06:00;83,6
2019-06-06 06:15;79,2
2019-06-06 06:30;76,6
2019-06-06 06:45;74,2
2019-06-06 07:00;74,2
2019-06-06 07:15;73,2
2019-06-06 07:30;128,9
2019-06-06 07:45;98,5
2019-06-06 08:00;89,85
2019-06-06 08:15;93,65
2019-06-06 08:30;98,4
2019-06-06 08:45;109
2019-06-06 09:00;113,8
2019-06-06 09:15;121,05
2019-06-06 09:30;121,5
2019-06-06 09:45;128,55
2019-06-06 10:00;127,55
2019-06-06 10:15;127
2019-06-06 10:30;132,65
2019-06-06 10:45;137,45
2019-06-06 11:00;135,9
2019-06-06 11:15;139,35
2019-06-06 11:30;142,55
2019-06-06 11:45;142,5
2019-06-06 12:00;149,35
2019-06-06 12:15;151,85
2019-06-06 12:30;156,3
2019-06-06 12:45;153,65
2019-06-06 13:00;160,95
2019-06-06 13:15;150
2019-06-06 13:30;159,65
2019-06-06 13:45;153,75
2019-06-06 14:00;150,6
2019-06-06 14:15;153,15
2019-06-06 14:30;145,8
2019-06-06 14:45;144,4
2019-06-06 15:00;140,05
2019-06-06 15:15;143,85
2019-06-06 15:30;137
2019-06-06 15:45;136,6
2019-06-06 16:00;129,2
2019-06-06 16:15;133,9
2019-06-06 16:30;132,2
2019-06-06 16:45;133,1
2019-06-06 17:00;128,8
2019-06-06 17:15;119,55
2019-06-06 17:30;121,65
2019-06-06 17:45;120,6
2019-06-06 18:00;121,3
2019-06-06 18:15;118,1
2019-06-06 18:30;116,3
2019-06-06 18:45;109,6
2019-06-06 19:00;108,2
2019-06-06 19:15;115,45
2019-06-06 19:30;117,95
2019-06-06 19:45;117,4
2019-06-06 20:00;110,7
2019-06-06 20:15;106,95
2019-06-06 20:30;110,85
2019-06-06 20:45;110,75
2019-06-06 21:00;108,45
2019-06-06 21:15;107,5
2019-06-06 21:30;107
2019-06-06 21:45;104,55
2019-06-06 22:00;94,35
2019-06-06 22:15;91,6
2019-06-06 22:30;89,2
2019-06-06 22:45;87,95
2019-06-06 23:00;92,65
2019-06-06 23:15;91,7
2019-06-06 23:30;88,4
2019-06-06 23:45;89,75
2019-06-07 00:00;80,85
2019-06-07 00:15;82,25
2019-06-07 00:30;80,4
2019-06-07 00:45;79,45
2019-06-07 01:00;80,1
2019-06-07 01:15;79,8
2019-06-07 01:30;81,6
2019-06-07 01:45;74,65
2019-06-07 02:00;73,35
2019-06-07 02:15;73,55
2019-06-07 02:30;72,15
2019-06-07 02:45;73,85
2019-06-07 03:00;73,55
2019-06-07 03:15;74,6
2019-06-07 03:30;78,4
2019-06-07 03:45;78,05
2019-06-07 04:00;78,9
2019-06-07 04:15;79,65
2019-06-07 04:30;77,95
2019-06-07 04:45;79,35
2019-06-07 05:00;80,15
2019-06-07 05:15;81,1
2019-06-07 05:30;81,1
2019-06-07 05:45;81,65
2019-06-07 06:00;77,6
2019-06-07 06:15;76
2019-06-07 06:30;71,7
2019-06-07 06:45;71,8
2019-06-07 07:00;76,2
2019-06-07 07:15;75,7
2019-06-07 07:30;131
2019-06-07 07:45;99
2019-06-07 08:00;83,8
2019-06-07 08:15;89,9
2019-06-07 08:30;100,5
2019-06-07 08:45;102,2
2019-06-07 09:00;110,4
2019-06-07 09:15;115,8
2019-06-07 09:30;118,2
2019-06-07 09:45;131,9
2019-06-07 10:00;129,6
2019-06-07 10:15;132,4
2019-06-07 10:30;145,05
2019-06-07 10:45;136,35
2019-06-07 11:00;137,25
2019-06-07 11:15;139,55
2019-06-07 11:30;148,5
2019-06-07 11:45;151,2
2019-06-07 12:00;148,55
2019-06-07 12:15;147,8
2019-06-07 12:30;158,2
2019-06-07 12:45;164,55
2019-06-07 13:00;175,4
2019-06-07 13:15;179,55
2019-06-07 13:30;178,05
2019-06-07 13:45;171,3
2019-06-07 14:00;174,3
2019-06-07 14:15;171,2
2019-06-07 14:30;167,9
2019-06-07 14:45;160,55
2019-06-07 15:00;147,95
2019-06-07 15:15;144,9
2019-06-07 15:30;149,15
2019-06-07 15:45;155,5
2019-06-07 16:00;145,75
2019-06-07 16:15;151,8
2019-06-07 16:30;148,2
2019-06-07 16:45;136,5
2019-06-07 17:00;138,9
2019-06-07 17:15;139,8
2019-06-07 17:30;137,1
2019-06-07 17:45;132,1
2019-06-07 18:00;132,9
2019-06-07 18:15;118,75
2019-06-07 18:30;137,2
2019-06-07 18:45;121,55
2019-06-07 19:00;120,95
2019-06-07 19:15;113,7
2019-06-07 19:30;112,35
2019-06-07 19:45;110,45
2019-06-07 20:00;112,9
2019-06-07 20:15;105,3
2019-06-07 20:30;112,45
2019-06-07 20:45;113,8
2019-06-07 21:00;113,05
2019-06-07 21:15;109,3
2019-06-07 21:30;108,35
2019-06-07 21:45;100,25
2019-06-07 22:00;91,85
2019-06-07 22:15;90,55
2019-06-07 22:30;90,05
2019-06-07 22:45;88,4
2019-06-07 23:00;94,8
2019-06-07 23:15;94,2
2019-06-07 23:30;99,4
2019-06-07 23:45;101,4
2019-06-08 00:00;90
2019-06-08 00:15;88,25
2019-06-08 00:30;86,45
2019-06-08 00:45;88,65
2019-06-08 01:00;88,85
2019-06-08 01:15;87,65
2019-06-08 01:30;87,75
2019-06-08 01:45;86,8
2019-06-08 02:00;84,4
2019-06-08 02:15;83,5
2019-06-08 02:30;82,6
2019-06-08 02:45;82,25
2019-06-08 03:00;81,25
2019-06-08 03:15;80,5
2019-06-08 03:30;78,8
2019-06-08 03:45;76,55
2019-06-08 04:00;75,95
2019-06-08 04:15;76,6
2019-06-08 04:30;77,7
2019-06-08 04:45;75,5
2019-06-08 05:00;74,8
2019-06-08 05:15;75,45
2019-06-08 05:30;75,5
2019-06-08 05:45;76,75
2019-06-08 06:00;73,5
2019-06-08 06:15;69,7
2019-06-08 06:30;68,4
2019-06-08 06:45;67,85
2019-06-08 07:00;68,85
2019-06-08 07:15;66,8
2019-06-08 07:30;67,5
2019-06-08 07:45;67,75
2019-06-08 08:00;68
2019-06-08 08:15;67,85
2019-06-08 08:30;69
2019-06-08 08:45;71,7
2019-06-08 09:00;72,9
2019-06-08 09:15;75,55
2019-06-08 09:30;73,5
2019-06-08 09:45;75,75
2019-06-08 10:00;76,6
2019-06-08 10:15;79,55
2019-06-08 10:30;79,35
2019-06-08 10:45;75,95
2019-06-08 11:00;79,75
2019-06-08 11:15;75,3
2019-06-08 11:30;77
2019-06-08 11:45;77
2019-06-08 12:00;78,9
2019-06-08 12:15;77,6
2019-06-08 12:30;80,05
2019-06-08 12:45;84,65
2019-06-08 13:00;87,7
2019-06-08 13:15;89,4
2019-06-08 13:30;87,2
2019-06-08 13:45;85,7
2019-06-08 14:00;86,3
2019-06-08 14:15;92,3
2019-06-08 14:30;95,25
2019-06-08 14:45;94,15
2019-06-08 15:00;94,95
2019-06-08 15:15;96,75
2019-06-08 15:30;95,8
2019-06-08 15:45;97,1
2019-06-08 16:00;95,4
2019-06-08 16:15;93,85
2019-06-08 16:30;94,4
2019-06-08 16:45;92,55
2019-06-08 17:00;83,35
2019-06-08 17:15;82,9
2019-06-08 17:30;80,9
2019-06-08 17:45;79,7
2019-06-08 18:00;82,65
2019-06-08 18:15;82,8
2019-06-08 18:30;83,8
2019-06-08 18:45;86
2019-06-08 19:00;84,25
2019-06-08 19:15;84,65
2019-06-08 19:30;89,25
2019-06-08 19:45;90
2019-06-08 20:00;86,65
2019-06-08 20:15;89,45
2019-06-08 20:30;96,9
2019-06-08 20:45;97,65
2019-06-08 21:00;95,2
2019-06-08 21:15;98,25
2019-06-08 21:30;96,3
2019-06-08 21:45;92,85
2019-06-08 22:00;91,95
2019-06-08 22:15;86,75
2019-06-08 22:30;84,4
2019-06-08 22:45;81,1
2019-06-08 23:00;89,75
2019-06-08 23:15;84,9
2019-06-08 23:30;87,2
2019-06-08 23:45;95,15
2019-06-09 00:00;85,7
2019-06-09 00:15;88,4
2019-06-09 00:30;87
2019-06-09 00:45;85,65
2019-06-09 01:00;84,45
2019-06-09 01:15;84,8
2019-06-09 01:30;87
2019-06-09 01:45;81,4
2019-06-09 02:00;79,75
2019-06-09 02:15;79,85
2019-06-09 02:30;80,65
2019-06-09 02:45;79,65
2019-06-09 03:00;77,9
2019-06-09 03:15;78,8
2019-06-09 03:30;80,9
2019-06-09 03:45;80,2
2019-06-09 04:00;80,05
2019-06-09 04:15;82,7
2019-06-09 04:30;82,95
2019-06-09 04:45;81,8
2019-06-09 05:00;81,4
2019-06-09 05:15;81,8
2019-06-09 05:30;80,4
2019-06-09 05:45;80,15
2019-06-09 06:00;80,45
2019-06-09 06:15;74,15
2019-06-09 06:30;73,15
2019-06-09 06:45;74,1
2019-06-09 07:00;75,2
2019-06-09 07:15;73,6
2019-06-09 07:30;72,45
2019-06-09 07:45;69,8
2019-06-09 08:00;67,85
2019-06-09 08:15;69,75
2019-06-09 08:30;68,8
2019-06-09 08:45;68,05
2019-06-09 09:00;68,8
2019-06-09 09:15;72,3
2019-06-09 09:30;82,05
2019-06-09 09:45;78
2019-06-09 10:00;78,05
2019-06-09 10:15;78,6
2019-06-09 10:30;77,7
2019-06-09 10:45;72,8
2019-06-09 11:00;76,75
2019-06-09 11:15;73,35
2019-06-09 11:30;78
2019-06-09 11:45;79,35
2019-06-09 12:00;76,15
2019-06-09 12:15;77,3
2019-06-09 12:30;78,05
2019-06-09 12:45;74,45
2019-06-09 13:00;79,4
2019-06-09 13:15;75,2
2019-06-09 13:30;77,15
2019-06-09 13:45;80,2
2019-06-09 14:00;80,4
2019-06-09 14:15;80,75
2019-06-09 14:30;83
2019-06-09 14:45;85,7
2019-06-09 15:00;84,45
2019-06-09 15:15;81,25
2019-06-09 15:30;81,7
2019-06-09 15:45;84,9
2019-06-09 16:00;83,7
2019-06-09 16:15;85,7
2019-06-09 16:30;83,8
2019-06-09 16:45;85,6
2019-06-09 17:00;81,95
2019-06-09 17:15;78,95
2019-06-09 17:30;78,05
2019-06-09 17:45;80,25
2019-06-09 18:00;80,7
2019-06-09 18:15;82
2019-06-09 18:30;82,15
2019-06-09 18:45;85,05
2019-06-09 19:00;82,6
2019-06-09 19:15;84,6
2019-06-09 19:30;87,65
2019-06-09 19:45;89,5
2019-06-09 20:00;88,5
2019-06-09 20:15;86,25
2019-06-09 20:30;90,8
2019-06-09 20:45;86,6
2019-06-09 21:00;92,6
2019-06-09 21:15;94,3
2019-06-09 21:30;94,3
2019-06-09 21:45;88,9
2019-06-09 22:00;87,15
2019-06-09 22:15;85,75
2019-06-09 22:30;84,7
2019-06-09 22:45;84,85
2019-06-09 23:00;92,9
2019-06-09 23:15;88,15
2019-06-09 23:30;91,8
2019-06-09 23:45;92,8

